World > North America > United States > Wyoming > Shirley Basin  

Shirley Basin, WY Hourly Weather Updates

Feedback E-mail the Weather

Quick Clicks

Shirley Basin, WY Weather Maps

°F °C°F °C
Shirley Basin Weather Map
UTC Time: 4/23/2024, 00:54
Your Time:

Shirley Basin, WY Regional Weather

Expires:202404230100;;211253
ASUS45 KCYS 230010
RWRWY 

WYOMING REGIONAL WEATHER ROUNDUP
NATIONAL WEATHER SERVICE CHEYENNE WY
600 PM MDT MON APR 22 2024

NOTE:  "FAIR" INDICATES FEW OR NO CLOUDS BELOW 12,000 FEET
WITH NO SIGNIFICANT WEATHER AND/OR OBSTRUCTIONS TO VISIBILITY.


WYZ021-027>030-104>119-230100-
...SOUTHERN WYOMING...
  
CITY           SKY/WX    TMP DP  RH WIND       PRES   REMARKS
EVANSTON       MOSUNNY   61  23  23 W20G31    30.02S                  
6HR MIN TEMP:  59; 6HR MAX TEMP:  64;                                

KEMMERER       MOSUNNY   55   7  14 W25G37    29.99R                  
FORT BRIDGER   MOSUNNY   62  15  15 W28G37    30.01S                  
ROCK SPRINGS   MOSUNNY   63  10  12 W28G39    29.95R                  
6HR MIN TEMP:  59; 6HR MAX TEMP:  67;                                

DIXON          PTSUNNY   65  23  20 SW13G18   29.94R                  
RAWLINS        PTSUNNY   64   2   8 MISG      29.89R                  
6HR MIN TEMP:  62; 6HR MAX TEMP:  68;                                

SARATOGA       PTSUNNY   64   7  10 W25G40    29.91S                  
LARAMIE        MOSUNNY   63  18  17 W23G44    29.90S                  
6HR MIN TEMP:  60; 6HR MAX TEMP:  68;                                

CHEYENNE       PTSUNNY   68  19  15 W18G40    29.85S                  
6HR MIN TEMP:  55; 6HR MAX TEMP:  70;                                

TORRINGTON     MOSUNNY   66  33  29 NE10      29.79S                  
6HR MIN TEMP:  61; 6HR MAX TEMP:  69;                                

PINE BLUFFS      N/A     61  32  33 E10       29.84S                  

$$
  

SKY/WX - Weather  TMP - Temperature  DP - Dew Point  RH - Humidity
WIND - Wind Direction/Speed PRES - Barometric Pressure VSB - Visibility
WCI - Wind Chill Index E13G22 Wind - East Wind 13 mph/Gusts of 22 mph

Trending Headlines

Trending Entertainment Headlines

Shirley Basin Radar Loop

Use the map search tool if you want to place a location marker on the radar map...

Shirley Basin Quick Facts

National Two Day Weather Forecast


E-mail the Shirley Basin Weather Forecast

Voice your opinion or tell us about page issues...